Location: Rio Negrinho
(26.2394°S, 49.4999°W)
Time: 07:07:24
(UTC+00:00)

Hubble Space Telescope - Pass Details

Date: 25 July 2021
Orbit: 535 x 539 km, 28.5° (Epoch: 26 September)

Event Time Altitude Azimuth Distance (km) Brightness Sun altitude
Exits shadow 08:23:59 - 341° (NNW) 1,958 3.5 -21.7°
Reaches altitude 10° 08:24:39 10° 347° (NNW) 1,781 3.4 -21.5°
Maximum altitude 08:27:18 17° 28° (NNE) 1,417 3.4 -20.9°
Drops below altitude 10° 08:29:57 10° 68° (ENE) 1,791 4.6 -20.3°
Sets 08:32:53 0° 89° (E) 2,687 5.8 -19.7°
